Private Wetterstation Wechselburg
Wetterdaten: Freitag, 24.06.2016
Datum Zeit Temp. +2m Bodentemp. Temp.+5cm Temp. Wind Windchill X Diff Temp. Feuchte +2m Feuchte +5cm Sonnenschein Luftdruck Regen Wind Richtung Richtung Sonnenschein Taupunkt Windchill Windben
24.06.2016 00:00 21,9 C 25,1 C 21,3 C 21,4 C 20,5 C 0,0 C 76 % 81 % 0 % 1015,9 hPa 0,0 l/m 0,0 km/h (0 Bft) W 270 0 min 17,5 C 20,5 C 0,0 km/h (0 Bft)
24.06.2016 00:05 21,7 C 25,1 C 21,3 C 21,3 C 20,4 C 0,0 C 76 % 81 % 0 % 1015,7 hPa 0,0 l/m 0,0 km/h (0 Bft) W 270 0 min 17,3 C 20,4 C 0,0 km/h (0 Bft)
24.06.2016 00:10 21,5 C 25,1 C 20,9 C 21,1 C 20,2 C 0,0 C 77 % 82 % 0 % 1015,7 hPa 0,0 l/m 0,0 km/h (0 Bft) W 270 0 min 17,3 C 20,2 C 0,0 km/h (0 Bft)
24.06.2016 00:15 21,2 C 25,1 C 20,9 C 20,9 C 20,2 C 0,0 C 77 % 82 % 0 % 1015,7 hPa 0,0 l/m 0,0 km/h (0 Bft) O-NO 67 0 min 17,0 C 20,2 C 0,0 km/h (0 Bft)
24.06.2016 00:20 21,0 C 25,1 C 20,9 C 20,7 C 20,2 C 0,0 C 78 % 82 % 0 % 1015,7 hPa 0,0 l/m 0,0 km/h (0 Bft) N-NW 337 0 min 17,0 C 20,2 C 0,0 km/h (0 Bft)
24.06.2016 00:25 20,9 C 25,1 C 20,6 C 20,6 C 20,1 C 0,0 C 78 % 82 % 0 % 1015,6 hPa 0,0 l/m 0,0 km/h (0 Bft) N-NW 337 0 min 16,9 C 20,1 C 0,0 km/h (0 Bft)
24.06.2016 00:30 20,6 C 25,1 C 20,5 C 20,4 C 20,0 C 0,0 C 78 % 83 % 0 % 1015,6 hPa 0,0 l/m 0,0 km/h (0 Bft) O-NO 67 0 min 16,6 C 20,0 C 0,0 km/h (0 Bft)
24.06.2016 00:35 20,4 C 25,2 C 20,3 C 20,2 C 19,8 C 0,0 C 78 % 83 % 0 % 1015,6 hPa 0,0 l/m 0,0 km/h (0 Bft) O-NO 67 0 min 16,4 C 19,8 C 0,0 km/h (0 Bft)
24.06.2016 00:50 19,7 C 25,1 C 19,9 C 19,6 C 19,3 C 0,0 C 79 % 84 % 0 % 1015,7 hPa 0,0 l/m 0,0 km/h (0 Bft) N 0 0 min 16,0 C 19,3 C 0,0 km/h (0 Bft)
24.06.2016 00:53 19,6 C 25,2 C 19,8 C 19,4 C 19,0 C 0,0 C 80 % 84 % 0 % 1015,7 hPa 0,0 l/m 0,0 km/h (0 Bft) O-NO 67 0 min 16,1 C 19,0 C 0,0 km/h (0 Bft)
24.06.2016 00:58 19,2 C 25,1 C 19,7 C 19,1 C 18,8 C 0,0 C 80 % 85 % 0 % 1015,7 hPa 0,0 l/m 0,0 km/h (0 Bft) O-NO 67 0 min 15,7 C 18,8 C 0,0 km/h (0 Bft)
24.06.2016 01:03 19,1 C 25,2 C 19,5 C 19,0 C 18,8 C 0,0 C 80 % 85 % 0 % 1015,4 hPa 0,0 l/m 0,0 km/h (0 Bft) O 90 0 min 15,6 C 18,8 C 0,0 km/h (0 Bft)
24.06.2016 01:08 18,8 C 25,2 C 19,2 C 18,7 C 18,6 C 0,0 C 80 % 85 % 0 % 1015,4 hPa 0,0 l/m 0,0 km/h (0 Bft) O-NO 67 0 min 15,3 C 18,6 C 0,0 km/h (0 Bft)
24.06.2016 01:13 18,7 C 25,3 C 19,2 C 18,6 C 18,5 C 0,0 C 80 % 85 % 0 % 1015,4 hPa 0,0 l/m 0,0 km/h (0 Bft) O-NO 67 0 min 15,2 C 18,5 C 0,0 km/h (0 Bft)
24.06.2016 01:18 18,4 C 25,3 C 19,1 C 18,3 C 18,2 C 0,0 C 81 % 85 % 0 % 1015,4 hPa 0,0 l/m 0,0 km/h (0 Bft) O 90 0 min 15,1 C 18,2 C 0,0 km/h (0 Bft)
24.06.2016 01:24 18,2 C 25,3 C 19,1 C 18,2 C 18,1 C 0,0 C 81 % 86 % 0 % 1015,6 hPa 0,0 l/m 0,0 km/h (0 Bft) O 90 0 min 14,9 C 18,1 C 0,0 km/h (0 Bft)
24.06.2016 01:35 18,0 C 25,2 C 18,9 C 17,9 C 17,7 C 0,0 C 81 % 86 % 0 % 1015,6 hPa 0,0 l/m 0,0 km/h (0 Bft) SW 225 0 min 14,7 C 17,7 C 0,0 km/h (0 Bft)
24.06.2016 01:41 17,9 C 25,2 C 18,8 C 17,8 C 17,5 C 0,0 C 82 % 86 % 0 % 1015,6 hPa 0,0 l/m 0,0 km/h (0 Bft) NO 45 0 min 14,8 C 17,5 C 0,0 km/h (0 Bft)
24.06.2016 01:42 17,9 C 25,2 C 18,8 C 17,8 C 17,5 C 0,0 C 82 % 86 % 0 % 1015,6 hPa 0,0 l/m 0,0 km/h (0 Bft) NO 45 0 min 14,8 C 17,5 C 0,0 km/h (0 Bft)
24.06.2016 01:43 17,9 C 25,2 C 18,8 C 17,8 C 17,5 C 0,0 C 82 % 86 % 0 % 1015,6 hPa 0,0 l/m 0,0 km/h (0 Bft) NO 45 0 min 14,8 C 17,5 C 0,0 km/h (0 Bft)
24.06.2016 01:44 17,9 C 25,2 C 18,8 C 17,8 C 17,5 C 0,0 C 82 % 86 % 0 % 1015,6 hPa 0,0 l/m 0,0 km/h (0 Bft) NO 45 0 min 14,8 C 17,5 C 0,0 km/h (0 Bft)
24.06.2016 01:45 17,7 C 25,2 C 18,7 C 17,6 C 17,3 C 0,0 C 82 % 87 % 0 % 1015,8 hPa 0,0 l/m 0,0 km/h (0 Bft) W 270 0 min 14,6 C 17,3 C 0,0 km/h (0 Bft)
24.06.2016 01:48 17,7 C 25,2 C 18,7 C 17,6 C 17,3 C 0,0 C 82 % 87 % 0 % 1015,8 hPa 0,0 l/m 0,0 km/h (0 Bft) W 270 0 min 14,6 C 17,3 C 0,0 km/h (0 Bft)
24.06.2016 01:55 17,5 C 25,2 C 18,6 C 17,3 C 17,0 C 0,0 C 82 % 87 % 0 % 1015,8 hPa 0,0 l/m 0,0 km/h (0 Bft) W 270 0 min 14,4 C 17,0 C 0,0 km/h (0 Bft)
24.06.2016 02:00 17,2 C 25,2 C 18,5 C 17,1 C 16,8 C 0,0 C 82 % 87 % 0 % 1015,8 hPa 0,0 l/m 0,0 km/h (0 Bft) O-NO 67 0 min 14,1 C 16,8 C 0,0 km/h (0 Bft)
24.06.2016 02:05 17,2 C 25,2 C 18,3 C 17,1 C 16,8 C 0,0 C 82 % 87 % 0 % 1015,6 hPa 0,0 l/m 0,0 km/h (0 Bft) W 270 0 min 14,1 C 16,8 C 0,0 km/h (0 Bft)
24.06.2016 02:10 17,0 C 25,2 C 18,3 C 16,9 C 16,8 C 0,0 C 83 % 87 % 0 % 1015,6 hPa 0,0 l/m 0,0 km/h (0 Bft) NO 45 0 min 14,1 C 16,8 C 0,0 km/h (0 Bft)
24.06.2016 02:15 17,1 C 25,3 C 18,1 C 17,0 C 16,8 C 0,0 C 83 % 87 % 0 % 1015,6 hPa 0,0 l/m 0,0 km/h (0 Bft) NO 45 0 min 14,2 C 16,8 C 0,0 km/h (0 Bft)
24.06.2016 02:20 16,8 C 25,2 C 18,1 C 16,7 C 16,6 C 0,0 C 83 % 87 % 0 % 1015,6 hPa 0,0 l/m 0,0 km/h (0 Bft) SW 225 0 min 13,9 C 16,6 C 0,0 km/h (0 Bft)
24.06.2016 02:25 16,7 C 25,2 C 18,0 C 16,6 C 16,5 C 0,0 C 83 % 88 % 0 % 1015,8 hPa 0,0 l/m 0,0 km/h (0 Bft) SW 225 0 min 13,8 C 16,5 C 0,0 km/h (0 Bft)
24.06.2016 02:30 16,7 C 25,2 C 17,9 C 16,6 C 16,5 C 0,0 C 83 % 88 % 0 % 1015,8 hPa 0,0 l/m 0,0 km/h (0 Bft) O-NO 67 0 min 13,8 C 16,5 C 0,0 km/h (0 Bft)
24.06.2016 02:35 16,5 C 25,2 C 17,8 C 16,5 C 16,4 C 0,0 C 84 % 88 % 0 % 1015,8 hPa 0,0 l/m 0,0 km/h (0 Bft) O-NO 67 0 min 13,8 C 16,4 C 0,0 km/h (0 Bft)
24.06.2016 02:40 16,5 C 25,2 C 17,7 C 16,4 C 16,3 C 0,0 C 84 % 88 % 0 % 1015,8 hPa 0,0 l/m 0,0 km/h (0 Bft) O-NO 67 0 min 13,8 C 16,3 C 0,0 km/h (0 Bft)
24.06.2016 02:45 16,4 C 25,2 C 17,6 C 16,4 C 16,3 C 0,0 C 84 % 88 % 0 % 1015,6 hPa 0,0 l/m 0,0 km/h (0 Bft) O-NO 67 0 min 13,7 C 16,3 C 0,0 km/h (0 Bft)
24.06.2016 02:50 16,4 C 25,1 C 17,6 C 16,3 C 16,2 C 0,0 C 85 % 88 % 0 % 1015,6 hPa 0,0 l/m 0,0 km/h (0 Bft) O-NO 67 0 min 13,9 C 16,2 C 0,0 km/h (0 Bft)
24.06.2016 03:00 16,1 C 25,1 C 17,4 C 16,0 C 15,8 C 0,0 C 85 % 88 % 0 % 1015,6 hPa 0,0 l/m 0,0 km/h (0 Bft) O-NO 67 0 min 13,6 C 15,8 C 0,0 km/h (0 Bft)
24.06.2016 03:05 16,0 C 25,0 C 17,4 C 15,9 C 15,6 C 0,0 C 85 % 88 % 0 % 1015,6 hPa 0,0 l/m 0,0 km/h (0 Bft) O-NO 67 0 min 13,5 C 15,6 C 0,0 km/h (0 Bft)
24.06.2016 03:10 15,9 C 25,0 C 17,3 C 15,8 C 15,5 C 0,0 C 85 % 88 % 0 % 1015,6 hPa 0,0 l/m 0,0 km/h (0 Bft) O-NO 67 0 min 13,4 C 15,5 C 0,0 km/h (0 Bft)
24.06.2016 03:15 15,7 C 25,1 C 17,3 C 15,6 C 15,5 C 0,0 C 85 % 88 % 0 % 1015,6 hPa 0,0 l/m 0,0 km/h (0 Bft) O-NO 67 0 min 13,2 C 15,5 C 0,0 km/h (0 Bft)
24.06.2016 03:20 15,6 C 25,0 C 17,1 C 15,6 C 15,5 C 0,0 C 85 % 88 % 0 % 1015,6 hPa 0,0 l/m 0,0 km/h (0 Bft) O-NO 67 0 min 13,1 C 15,5 C 0,0 km/h (0 Bft)
24.06.2016 03:25 15,6 C 25,0 C 17,0 C 15,6 C 15,6 C 0,0 C 85 % 89 % 0 % 1015,8 hPa 0,0 l/m 0,0 km/h (0 Bft) O-NO 67 0 min 13,1 C 15,6 C 0,0 km/h (0 Bft)
24.06.2016 03:30 15,6 C 25,1 C 17,1 C 15,6 C 15,6 C 0,0 C 86 % 89 % 0 % 1015,8 hPa 0,0 l/m 0,0 km/h (0 Bft) O-NO 67 0 min 13,3 C 15,6 C 0,0 km/h (0 Bft)
24.06.2016 03:35 15,6 C 25,1 C 16,9 C 15,6 C 15,6 C 0,0 C 86 % 89 % 0 % 1015,8 hPa 0,0 l/m 0,0 km/h (0 Bft) O-NO 67 0 min 13,3 C 15,6 C 0,0 km/h (0 Bft)
24.06.2016 04:01 15,2 C 24,9 C 16,7 C 15,2 C 15,2 C 0,0 C 86 % 89 % 0 % 1015,4 hPa 0,0 l/m 0,0 km/h (0 Bft) N 0 0 min 12,9 C 15,2 C 0,0 km/h (0 Bft)
24.06.2016 04:19 15,1 C 24,9 C 16,4 C 15,1 C 15,1 C 0,0 C 87 % 89 % 0 % 1015,6 hPa 0,0 l/m 0,0 km/h (0 Bft) W-SW 247 0 min 13,0 C 15,1 C 0,0 km/h (0 Bft)
24.06.2016 04:20 15,1 C 24,9 C 16,4 C 15,1 C 15,1 C 0,0 C 87 % 89 % 0 % 1015,6 hPa 0,0 l/m 0,0 km/h (0 Bft) W-SW 247 0 min 13,0 C 15,1 C 0,0 km/h (0 Bft)
24.06.2016 04:21 15,1 C 24,9 C 16,4 C 15,1 C 15,1 C 0,0 C 87 % 89 % 0 % 1015,6 hPa 0,0 l/m 0,0 km/h (0 Bft) W-SW 247 0 min 13,0 C 15,1 C 0,0 km/h (0 Bft)
24.06.2016 04:22 15,1 C 24,9 C 16,4 C 15,1 C 15,1 C 0,0 C 87 % 89 % 0 % 1015,6 hPa 0,0 l/m 0,0 km/h (0 Bft) W-SW 247 0 min 13,0 C 15,1 C 0,0 km/h (0 Bft)
24.06.2016 04:23 14,9 C 24,9 C 16,4 C 15,0 C 15,0 C 0,1 C 87 % 89 % 0 % 1015,5 hPa 0,0 l/m 0,0 km/h (0 Bft) W-SW 247 0 min 12,8 C 15,0 C 0,0 km/h (0 Bft)
24.06.2016 04:30 14,8 C 24,8 C 16,3 C 14,9 C 14,9 C 0,1 C 87 % 89 % 0 % 1015,5 hPa 0,0 l/m 0,0 km/h (0 Bft) W-NW 292 0 min 12,7 C 14,9 C 0,0 km/h (0 Bft)
24.06.2016 04:35 14,8 C 24,9 C 16,3 C 14,9 C 14,9 C 0,1 C 87 % 89 % 0 % 1015,5 hPa 0,0 l/m 0,0 km/h (0 Bft) S-SO 157 0 min 12,7 C 14,9 C 0,0 km/h (0 Bft)
24.06.2016 04:40 14,9 C 24,9 C 16,3 C 15,0 C 15,0 C 0,1 C 87 % 89 % 0 % 1015,5 hPa 0,0 l/m 0,0 km/h (0 Bft) W-NW 292 0 min 12,8 C 15,0 C 0,0 km/h (0 Bft)
24.06.2016 04:45 14,9 C 24,9 C 16,3 C 15,0 C 15,0 C 0,1 C 87 % 89 % 0 % 1016,0 hPa 0,0 l/m 0,0 km/h (0 Bft) O-SO 112 0 min 12,8 C 15,0 C 0,0 km/h (0 Bft)
24.06.2016 04:50 14,9 C 24,9 C 16,3 C 15,0 C 15,0 C 0,1 C 87 % 89 % 0 % 1016,0 hPa 0,0 l/m 0,0 km/h (0 Bft) NW 315 0 min 12,8 C 15,0 C 0,0 km/h (0 Bft)
24.06.2016 04:55 14,8 C 24,8 C 16,3 C 15,0 C 15,0 C 0,2 C 87 % 89 % 0 % 1016,0 hPa 0,0 l/m 0,0 km/h (0 Bft) W-SW 247 0 min 12,7 C 15,0 C 0,0 km/h (0 Bft)
24.06.2016 05:00 14,8 C 24,8 C 16,3 C 14,9 C 14,9 C 0,1 C 87 % 89 % 0 % 1016,0 hPa 0,0 l/m 0,0 km/h (0 Bft) W-SW 247 0 min 12,7 C 14,9 C 0,0 km/h (0 Bft)
24.06.2016 05:05 14,8 C 24,8 C 16,3 C 14,9 C 14,9 C 0,1 C 88 % 89 % 0 % 1015,8 hPa 0,0 l/m 0,0 km/h (0 Bft) O-NO 67 0 min 12,8 C 14,9 C 0,0 km/h (0 Bft)
24.06.2016 05:10 14,9 C 24,8 C 16,2 C 15,0 C 15,0 C 0,1 C 88 % 90 % 3 % 1015,8 hPa 0,0 l/m 0,0 km/h (0 Bft) O-NO 67 0 min 12,9 C 15,0 C 0,0 km/h (0 Bft)
24.06.2016 05:15 14,8 C 24,8 C 16,1 C 15,0 C 15,0 C 0,2 C 88 % 90 % 5 % 1015,8 hPa 0,0 l/m 0,0 km/h (0 Bft) O-NO 67 0 min 12,8 C 15,0 C 0,0 km/h (0 Bft)
24.06.2016 05:20 14,8 C 24,8 C 16,1 C 15,0 C 15,0 C 0,2 C 88 % 90 % 5 % 1015,8 hPa 0,0 l/m 0,0 km/h (0 Bft) NW 315 0 min 12,8 C 15,0 C 0,0 km/h (0 Bft)
24.06.2016 05:25 14,8 C 24,8 C 16,1 C 15,0 C 15,0 C 0,2 C 88 % 90 % 5 % 1015,4 hPa 0,0 l/m 0,0 km/h (0 Bft) W 270 0 min 12,8 C 15,0 C 0,0 km/h (0 Bft)
24.06.2016 05:30 14,7 C 24,7 C 16,1 C 15,0 C 15,0 C 0,3 C 88 % 90 % 8 % 1015,4 hPa 0,0 l/m 0,0 km/h (0 Bft) W-SW 247 0 min 12,7 C 15,0 C 0,0 km/h (0 Bft)
24.06.2016 05:35 14,7 C 24,8 C 16,1 C 14,9 C 14,9 C 0,2 C 88 % 90 % 5 % 1015,4 hPa 0,0 l/m 0,0 km/h (0 Bft) W-SW 247 0 min 12,7 C 14,9 C 0,0 km/h (0 Bft)
24.06.2016 05:40 14,5 C 24,8 C 16,0 C 14,7 C 14,7 C 0,2 C 88 % 90 % 5 % 1015,4 hPa 0,0 l/m 0,0 km/h (0 Bft) W-SW 247 0 min 12,5 C 14,7 C 0,0 km/h (0 Bft)
24.06.2016 05:45 14,5 C 24,8 C 16,1 C 14,7 C 14,7 C 0,2 C 88 % 90 % 5 % 1015,6 hPa 0,0 l/m 0,0 km/h (0 Bft) W-SW 247 0 min 12,5 C 14,7 C 0,0 km/h (0 Bft)
24.06.2016 05:50 14,5 C 24,8 C 16,1 C 14,7 C 14,7 C 0,2 C 88 % 90 % 5 % 1015,6 hPa 0,0 l/m 0,0 km/h (0 Bft) W-SW 247 0 min 12,5 C 14,7 C 0,0 km/h (0 Bft)
24.06.2016 05:55 14,5 C 24,7 C 16,1 C 14,7 C 14,7 C 0,2 C 88 % 90 % 5 % 1015,6 hPa 0,0 l/m 0,0 km/h (0 Bft) W-SW 247 0 min 12,5 C 14,7 C 0,0 km/h (0 Bft)
24.06.2016 06:00 14,5 C 24,7 C 16,1 C 15,0 C 15,0 C 0,5 C 88 % 90 % 13 % 1015,6 hPa 0,0 l/m 0,0 km/h (0 Bft) W-SW 247 0 min 12,5 C 15,0 C 0,0 km/h (0 Bft)
24.06.2016 06:05 14,5 C 24,7 C 16,2 C 15,0 C 15,0 C 0,5 C 89 % 90 % 13 % 1016,2 hPa 0,0 l/m 0,0 km/h (0 Bft) W 270 0 min 12,7 C 15,0 C 0,0 km/h (0 Bft)
24.06.2016 06:10 14,7 C 24,6 C 16,4 C 15,2 C 15,2 C 0,5 C 89 % 90 % 13 % 1016,2 hPa 0,0 l/m 0,0 km/h (0 Bft) W-SW 247 0 min 12,9 C 15,2 C 0,0 km/h (0 Bft)
24.06.2016 06:15 14,7 C 24,6 C 16,5 C 15,4 C 15,4 C 0,7 C 89 % 90 % 18 % 1016,2 hPa 0,0 l/m 0,0 km/h (0 Bft) W-SW 247 0 min 12,9 C 15,4 C 0,0 km/h (0 Bft)
24.06.2016 06:20 14,8 C 24,5 C 16,5 C 15,5 C 15,5 C 0,7 C 89 % 90 % 18 % 1016,2 hPa 0,0 l/m 0,0 km/h (0 Bft) W-SW 247 0 min 13,0 C 15,5 C 0,0 km/h (0 Bft)
24.06.2016 06:25 14,8 C 24,5 C 16,5 C 15,5 C 15,5 C 0,7 C 89 % 90 % 18 % 1015,4 hPa 0,0 l/m 0,0 km/h (0 Bft) SW 225 0 min 13,0 C 15,5 C 0,0 km/h (0 Bft)
24.06.2016 06:30 14,9 C 24,5 C 16,7 C 15,7 C 15,7 C 0,8 C 89 % 90 % 21 % 1015,4 hPa 0,0 l/m 0,0 km/h (0 Bft) N-NW 337 0 min 13,1 C 15,7 C 0,0 km/h (0 Bft)
24.06.2016 06:35 14,9 C 24,5 C 16,7 C 15,8 C 15,8 C 0,9 C 90 % 90 % 24 % 1015,4 hPa 0,0 l/m 0,0 km/h (0 Bft) N-NW 337 0 min 13,3 C 15,8 C 0,0 km/h (0 Bft)
24.06.2016 06:56 15,6 C 24,4 C 17,6 C 16,7 C 16,7 C 1,1 C 90 % 90 % 29 % 1015,6 hPa 0,0 l/m 0,0 km/h (0 Bft) N 0 0 min 14,0 C 16,7 C 0,0 km/h (0 Bft)
24.06.2016 07:12 16,4 C 24,2 C 18,6 C 24,7 C 24,7 C 8,3 C 91 % 89 % 100 % 1015,6 hPa 0,0 l/m 0,0 km/h (0 Bft) W-SW 247 16 min 14,9 C 24,7 C 0,0 km/h (0 Bft)
24.06.2016 07:13 16,4 C 24,2 C 18,6 C 24,7 C 24,7 C 8,3 C 91 % 89 % 100 % 1015,6 hPa 0,0 l/m 0,0 km/h (0 Bft) W-SW 247 1 min 14,9 C 24,7 C 0,0 km/h (0 Bft)
24.06.2016 07:14 16,4 C 24,2 C 18,6 C 24,7 C 24,7 C 8,3 C 91 % 89 % 100 % 1015,6 hPa 0,0 l/m 0,0 km/h (0 Bft) W-SW 247 1 min 14,9 C 24,7 C 0,0 km/h (0 Bft)
24.06.2016 07:16 16,7 C 24,2 C 18,8 C 26,6 C 26,6 C 9,9 C 92 % 89 % 100 % 1015,6 hPa 0,0 l/m 0,0 km/h (0 Bft) S 180 2 min 15,4 C 26,6 C 0,0 km/h (0 Bft)
24.06.2016 07:25 17,6 C 24,1 C 19,1 C 29,5 C 29,5 C 11,9 C 92 % 88 % 100 % 1015,6 hPa 0,0 l/m 0,0 km/h (0 Bft) W-SW 247 9 min 16,3 C 29,5 C 0,0 km/h (0 Bft)
24.06.2016 07:30 18,1 C 24,1 C 19,3 C 30,7 C 30,7 C 12,6 C 92 % 88 % 100 % 1015,6 hPa 0,0 l/m 0,0 km/h (0 Bft) W-SW 247 5 min 16,8 C 30,7 C 0,0 km/h (0 Bft)
24.06.2016 07:35 18,4 C 24,2 C 19,5 C 31,0 C 31,0 C 12,6 C 92 % 88 % 100 % 1015,6 hPa 0,0 l/m 0,0 km/h (0 Bft) NW 315 5 min 17,1 C 31,0 C 0,0 km/h (0 Bft)
24.06.2016 07:40 19,1 C 24,1 C 19,7 C 31,7 C 31,7 C 12,6 C 92 % 88 % 100 % 1015,6 hPa 0,0 l/m 0,0 km/h (0 Bft) W 270 5 min 17,8 C 31,7 C 0,0 km/h (0 Bft)
24.06.2016 07:45 19,5 C 24,1 C 19,7 C 32,4 C 32,4 C 12,9 C 91 % 87 % 100 % 1015,4 hPa 0,0 l/m 0,0 km/h (0 Bft) NW 315 5 min 18,0 C 32,4 C 0,0 km/h (0 Bft)
24.06.2016 07:50 20,0 C 24,1 C 19,8 C 33,2 C 33,2 C 13,2 C 90 % 87 % 100 % 1015,4 hPa 0,0 l/m 0,0 km/h (0 Bft) NW 315 5 min 18,3 C 33,2 C 0,0 km/h (0 Bft)
24.06.2016 07:55 20,2 C 24,1 C 20,0 C 33,3 C 33,3 C 13,1 C 89 % 87 % 100 % 1015,4 hPa 0,0 l/m 0,2 km/h (0 Bft) W-SW 247 5 min 18,3 C 33,3 C 1,9 km/h (1 Bft)
24.06.2016 08:00 20,8 C 24,1 C 20,3 C 33,8 C 33,8 C 13,0 C 88 % 87 % 100 % 1015,4 hPa 0,0 l/m 0,3 km/h (0 Bft) W 270 5 min 18,7 C 33,8 C 0,0 km/h (0 Bft)
24.06.2016 08:05 21,3 C 24,0 C 20,3 C 34,4 C 34,4 C 13,1 C 88 % 87 % 100 % 1015,4 hPa 0,0 l/m 0,2 km/h (0 Bft) S 180 5 min 19,2 C 34,4 C 2,9 km/h (1 Bft)
24.06.2016 08:15 22,3 C 24,0 C 20,7 C 35,7 C 35,7 C 13,4 C 83 % 87 % 100 % 1015,4 hPa 0,0 l/m 0,0 km/h (0 Bft) W 270 10 min 19,3 C 35,7 C 0,0 km/h (0 Bft)
24.06.2016 08:20 22,9 C 24,0 C 20,8 C 36,1 C 36,1 C 13,2 C 80 % 87 % 100 % 1015,4 hPa 0,0 l/m 0,0 km/h (0 Bft) W 270 5 min 19,3 C 36,1 C 0,0 km/h (0 Bft)
24.06.2016 08:25 23,5 C 24,0 C 21,2 C 36,6 C 36,6 C 13,1 C 79 % 87 % 100 % 1015,6 hPa 0,0 l/m 0,0 km/h (0 Bft) W 270 5 min 19,6 C 36,6 C 0,0 km/h (0 Bft)
24.06.2016 08:30 24,4 C 24,0 C 21,5 C 37,6 C 37,6 C 13,2 C 77 % 87 % 100 % 1015,6 hPa 0,0 l/m 0,0 km/h (0 Bft) W-SW 247 5 min 20,1 C 37,6 C 0,0 km/h (0 Bft)
24.06.2016 08:35 25,0 C 24,0 C 21,5 C 37,7 C 37,7 C 12,7 C 76 % 87 % 100 % 1015,6 hPa 0,0 l/m 0,0 km/h (0 Bft) W-SW 247 5 min 20,5 C 37,7 C 0,0 km/h (0 Bft)
24.06.2016 08:40 25,6 C 24,0 C 21,7 C 37,9 C 37,9 C 12,3 C 75 % 87 % 100 % 1015,6 hPa 0,0 l/m 0,0 km/h (0 Bft) W-SW 247 5 min 20,8 C 37,9 C 0,0 km/h (0 Bft)
24.06.2016 08:45 26,1 C 24,0 C 21,6 C 37,9 C 37,9 C 11,8 C 73 % 87 % 100 % 1015,5 hPa 0,0 l/m 0,2 km/h (0 Bft) SW 225 5 min 20,9 C 37,9 C 0,0 km/h (0 Bft)
24.06.2016 08:50 26,6 C 23,9 C 21,9 C 37,9 C 37,9 C 11,3 C 71 % 86 % 100 % 1015,5 hPa 0,0 l/m 0,2 km/h (0 Bft) O-SO 112 5 min 20,9 C 37,9 C 0,0 km/h (0 Bft)
24.06.2016 08:55 27,3 C 23,9 C 21,9 C 38,1 C 38,1 C 10,8 C 69 % 86 % 100 % 1015,5 hPa 0,0 l/m 0,2 km/h (0 Bft) N 360 5 min 21,1 C 38,1 C 3,1 km/h (1 Bft)
24.06.2016 09:00 28,0 C 23,9 C 22,3 C 37,8 C 37,8 C 9,8 C 66 % 85 % 100 % 1015,5 hPa 0,0 l/m 0,2 km/h (0 Bft) W 270 5 min 21,0 C 37,8 C 0,0 km/h (0 Bft)
24.06.2016 09:05 28,4 C 23,9 C 22,4 C 38,6 C 38,6 C 10,2 C 65 % 84 % 100 % 1015,6 hPa 0,0 l/m 0,2 km/h (0 Bft) SO 135 5 min 21,2 C 38,6 C 3,1 km/h (1 Bft)
24.06.2016 09:15 29,1 C 23,9 C 22,9 C 37,2 C 37,2 C 8,1 C 61 % 83 % 100 % 1015,6 hPa 0,0 l/m 1,0 km/h (0 Bft) O-NO 67 10 min 20,8 C 37,2 C 3,5 km/h (1 Bft)
24.06.2016 09:20 29,2 C 23,9 C 23,1 C 36,8 C 36,8 C 7,6 C 60 % 82 % 100 % 1015,6 hPa 0,0 l/m 1,1 km/h (1 Bft) O-NO 67 5 min 20,6 C 36,8 C 3,4 km/h (1 Bft)
24.06.2016 09:25 29,2 C 23,9 C 23,3 C 36,2 C 36,2 C 7,0 C 59 % 81 % 100 % 1015,6 hPa 0,0 l/m 1,3 km/h (1 Bft) NO 45 5 min 20,3 C 36,2 C 2,4 km/h (1 Bft)
24.06.2016 09:30 29,2 C 23,9 C 23,8 C 36,1 C 36,1 C 6,9 C 58 % 80 % 100 % 1015,6 hPa 0,0 l/m 1,8 km/h (1 Bft) N-NO 22 5 min 20,1 C 36,1 C 2,6 km/h (1 Bft)
24.06.2016 09:35 29,3 C 23,9 C 24,1 C 36,5 C 36,5 C 7,2 C 58 % 78 % 100 % 1015,6 hPa 0,0 l/m 1,1 km/h (1 Bft) SO 135 5 min 20,2 C 36,5 C 0,0 km/h (0 Bft)
24.06.2016 09:50 28,9 C 24,0 C 23,9 C 38,1 C 38,1 C 9,2 C 59 % 78 % 100 % 1015,4 hPa 0,0 l/m 0,8 km/h (0 Bft) W 270 15 min 20,1 C 38,1 C 4,7 km/h (1 Bft)
24.06.2016 09:55 28,8 C 23,9 C 23,9 C 38,1 C 38,1 C 9,3 C 59 % 78 % 100 % 1015,4 hPa 0,0 l/m 0,3 km/h (0 Bft) W 270 5 min 20,0 C 38,1 C 0,0 km/h (0 Bft)
24.06.2016 10:00 28,7 C 23,9 C 23,9 C 36,7 C 36,7 C 8,0 C 58 % 77 % 100 % 1015,4 hPa 0,0 l/m 0,2 km/h (0 Bft) S-SW 202 5 min 19,6 C 36,7 C 0,0 km/h (0 Bft)
24.06.2016 10:05 28,7 C 23,9 C 23,9 C 37,3 C 37,3 C 8,6 C 59 % 77 % 100 % 1015,5 hPa 0,0 l/m 0,3 km/h (0 Bft) O-SO 112 5 min 19,9 C 37,3 C 0,0 km/h (0 Bft)
24.06.2016 10:15 28,7 C 23,9 C 24,1 C 38,4 C 38,4 C 9,7 C 60 % 77 % 100 % 1015,5 hPa 0,0 l/m 0,2 km/h (0 Bft) SW 225 10 min 20,1 C 38,4 C 0,0 km/h (0 Bft)
24.06.2016 10:20 28,5 C 23,9 C 24,0 C 39,1 C 39,1 C 10,6 C 61 % 78 % 100 % 1015,5 hPa 0,0 l/m 0,2 km/h (0 Bft) S-SO 157 5 min 20,2 C 39,1 C 0,0 km/h (0 Bft)
24.06.2016 10:25 28,5 C 24,0 C 24,1 C 39,3 C 39,3 C 10,8 C 61 % 78 % 100 % 1015,2 hPa 0,0 l/m 0,3 km/h (0 Bft) W 270 5 min 20,2 C 39,3 C 0,0 km/h (0 Bft)
24.06.2016 10:30 28,7 C 24,0 C 24,3 C 39,5 C 39,5 C 10,8 C 60 % 77 % 100 % 1015,2 hPa 0,0 l/m 0,2 km/h (0 Bft) N-NW 337 5 min 20,1 C 39,5 C 0,0 km/h (0 Bft)
24.06.2016 10:35 28,7 C 24,0 C 24,6 C 39,1 C 39,1 C 10,4 C 59 % 77 % 100 % 1015,2 hPa 0,0 l/m 0,3 km/h (0 Bft) O-NO 67 5 min 19,9 C 39,1 C 0,0 km/h (0 Bft)
24.06.2016 10:40 29,1 C 24,0 C 24,9 C 39,0 C 39,0 C 9,9 C 60 % 75 % 100 % 1015,2 hPa 0,0 l/m 0,3 km/h (0 Bft) W-NW 292 5 min 20,5 C 39,0 C 0,0 km/h (0 Bft)
24.06.2016 10:45 29,3 C 24,0 C 24,8 C 39,3 C 39,3 C 10,0 C 59 % 76 % 100 % 1015,2 hPa 0,0 l/m 0,2 km/h (0 Bft) NW 315 5 min 20,4 C 39,3 C 0,0 km/h (0 Bft)
24.06.2016 10:50 29,8 C 24,0 C 24,9 C 39,5 C 39,5 C 9,7 C 58 % 75 % 100 % 1015,2 hPa 0,0 l/m 0,3 km/h (0 Bft) W 270 5 min 20,6 C 39,5 C 1,6 km/h (1 Bft)
24.06.2016 10:55 29,9 C 24,0 C 25,0 C 39,5 C 39,5 C 9,6 C 57 % 75 % 100 % 1015,2 hPa 0,0 l/m 0,3 km/h (0 Bft) SW 225 5 min 20,4 C 39,5 C 0,0 km/h (0 Bft)
24.06.2016 11:00 30,0 C 24,1 C 25,1 C 39,4 C 39,4 C 9,4 C 57 % 76 % 100 % 1015,2 hPa 0,0 l/m 0,6 km/h (0 Bft) W-SW 247 5 min 20,5 C 39,4 C 0,0 km/h (0 Bft)
24.06.2016 11:05 30,1 C 24,0 C 25,1 C 39,3 C 39,3 C 9,2 C 56 % 75 % 100 % 1015,2 hPa 0,0 l/m 0,8 km/h (0 Bft) S 180 5 min 20,3 C 39,3 C 0,0 km/h (0 Bft)
24.06.2016 11:15 30,5 C 24,0 C 25,5 C 38,9 C 38,9 C 8,4 C 54 % 74 % 100 % 1015,2 hPa 0,0 l/m 1,0 km/h (0 Bft) NW 315 10 min 20,1 C 38,9 C 1,6 km/h (1 Bft)
24.06.2016 11:20 30,5 C 24,0 C 25,6 C 39,1 C 39,1 C 8,6 C 54 % 72 % 100 % 1015,2 hPa 0,0 l/m 0,5 km/h (0 Bft) SO 135 5 min 20,1 C 39,1 C 0,0 km/h (0 Bft)
24.06.2016 11:25 30,4 C 24,0 C 26,0 C 38,8 C 38,8 C 8,4 C 53 % 71 % 100 % 1015,2 hPa 0,0 l/m 0,5 km/h (0 Bft) NW 315 5 min 19,7 C 38,8 C 1,6 km/h (1 Bft)
24.06.2016 11:30 30,4 C 24,1 C 26,3 C 38,8 C 38,8 C 8,4 C 53 % 70 % 100 % 1015,2 hPa 0,0 l/m 0,5 km/h (0 Bft) O-SO 112 5 min 19,7 C 38,8 C 2,9 km/h (1 Bft)
24.06.2016 11:35 30,5 C 24,1 C 26,4 C 39,0 C 39,0 C 8,5 C 51 % 68 % 100 % 1015,2 hPa 0,0 l/m 0,5 km/h (0 Bft) NO 45 5 min 19,2 C 39,0 C 1,6 km/h (1 Bft)
24.06.2016 11:40 30,6 C 24,1 C 26,7 C 38,4 C 38,4 C 7,8 C 51 % 67 % 100 % 1015,2 hPa 0,0 l/m 1,3 km/h (1 Bft) O-NO 67 5 min 19,3 C 38,4 C 3,7 km/h (1 Bft)
24.06.2016 11:45 30,7 C 24,1 C 26,8 C 38,1 C 38,1 C 7,4 C 49 % 66 % 100 % 1015,1 hPa 0,0 l/m 1,8 km/h (1 Bft) NO 45 5 min 18,7 C 38,1 C 0,0 km/h (0 Bft)
24.06.2016 11:50 30,7 C 24,1 C 27,0 C 38,5 C 38,5 C 7,8 C 50 % 65 % 100 % 1015,1 hPa 0,0 l/m 1,3 km/h (1 Bft) O-SO 112 5 min 19,1 C 38,5 C 5,1 km/h (1 Bft)
24.06.2016 11:55 30,6 C 24,1 C 27,0 C 38,1 C 38,1 C 7,5 C 49 % 64 % 100 % 1015,1 hPa 0,0 l/m 1,0 km/h (0 Bft) NW 315 5 min 18,6 C 38,1 C 3,1 km/h (1 Bft)
24.06.2016 12:00 30,8 C 24,2 C 27,2 C 38,1 C 38,1 C 7,3 C 48 % 64 % 100 % 1015,1 hPa 0,0 l/m 2,1 km/h (1 Bft) O-NO 67 5 min 18,5 C 38,1 C 4,5 km/h (1 Bft)
24.06.2016 12:05 30,9 C 24,2 C 27,4 C 37,4 C 37,4 C 6,5 C 47 % 62 % 100 % 1015,0 hPa 0,0 l/m 2,4 km/h (1 Bft) SO 135 5 min 18,2 C 37,4 C 6,3 km/h (2 Bft)
24.06.2016 12:10 31,0 C 24,2 C 27,7 C 37,1 C 37,1 C 6,1 C 48 % 63 % 100 % 1015,0 hPa 0,0 l/m 3,5 km/h (1 Bft) O-NO 67 5 min 18,7 C 37,1 C 4,5 km/h (1 Bft)
24.06.2016 12:15 31,1 C 24,2 C 28,0 C 36,6 C 36,6 C 5,5 C 48 % 61 % 100 % 1015,0 hPa 0,0 l/m 3,4 km/h (1 Bft) O-NO 67 5 min 18,8 C 36,6 C 6,9 km/h (2 Bft)
24.06.2016 12:20 31,3 C 24,2 C 28,2 C 36,2 C 36,2 C 4,9 C 47 % 61 % 100 % 1015,0 hPa 0,0 l/m 4,7 km/h (1 Bft) O-NO 67 5 min 18,6 C 36,2 C 6,6 km/h (2 Bft)
24.06.2016 12:25 31,3 C 24,2 C 28,3 C 35,8 C 35,8 C 4,5 C 46 % 60 % 100 % 1014,9 hPa 0,0 l/m 4,8 km/h (1 Bft) O-NO 67 5 min 18,3 C 35,8 C 8,9 km/h (2 Bft)
24.06.2016 12:30 31,6 C 24,2 C 28,3 C 36,1 C 36,1 C 4,5 C 47 % 61 % 100 % 1014,9 hPa 0,0 l/m 3,5 km/h (1 Bft) O-NO 67 5 min 18,9 C 36,1 C 4,5 km/h (1 Bft)
24.06.2016 12:35 31,7 C 24,2 C 28,4 C 36,2 C 36,2 C 4,5 C 47 % 60 % 100 % 1014,9 hPa 0,0 l/m 3,4 km/h (1 Bft) O-SO 112 5 min 19,0 C 36,2 C 5,1 km/h (1 Bft)
24.06.2016 12:48 32,1 C 24,3 C 28,6 C 36,7 C 36,7 C 4,6 C 46 % 58 % 100 % 1014,9 hPa 0,0 l/m 2,6 km/h (1 Bft) O-SO 112 13 min 19,0 C 36,7 C 0,0 km/h (0 Bft)
24.06.2016 12:49 32,6 C 24,3 C 28,5 C 37,7 C 37,7 C 5,1 C 46 % 59 % 100 % 1014,9 hPa 0,0 l/m 1,1 km/h (1 Bft) O-NO 67 1 min 19,4 C 37,7 C 6,0 km/h (2 Bft)
24.06.2016 12:50 32,6 C 24,3 C 28,5 C 37,7 C 37,7 C 5,1 C 46 % 59 % 100 % 1014,9 hPa 0,0 l/m 1,1 km/h (1 Bft) O-NO 67 1 min 19,4 C 37,7 C 6,0 km/h (2 Bft)
24.06.2016 12:51 32,6 C 24,3 C 28,5 C 37,7 C 37,7 C 5,1 C 46 % 59 % 100 % 1014,9 hPa 0,0 l/m 1,1 km/h (1 Bft) O-NO 67 1 min 19,4 C 37,7 C 6,0 km/h (2 Bft)
24.06.2016 12:53 32,7 C 24,3 C 28,5 C 37,7 C 37,7 C 5,0 C 44 % 59 % 100 % 1014,9 hPa 0,0 l/m 1,8 km/h (1 Bft) O-NO 67 2 min 18,8 C 37,7 C 6,6 km/h (2 Bft)
24.06.2016 13:00 32,7 C 24,3 C 28,7 C 37,5 C 37,5 C 4,8 C 45 % 58 % 100 % 1014,9 hPa 0,0 l/m 2,9 km/h (1 Bft) SW 225 7 min 19,2 C 37,5 C 0,0 km/h (0 Bft)
24.06.2016 13:10 32,8 C 24,4 C 29,0 C 37,3 C 37,3 C 4,5 C 44 % 59 % 100 % 1014,5 hPa 0,0 l/m 3,4 km/h (1 Bft) O-NO 67 10 min 18,9 C 37,3 C 5,8 km/h (2 Bft)
24.06.2016 13:15 32,9 C 24,4 C 29,1 C 37,3 C 37,3 C 4,4 C 43 % 57 % 100 % 1014,5 hPa 0,0 l/m 3,2 km/h (1 Bft) N 360 5 min 18,6 C 37,3 C 3,5 km/h (1 Bft)
24.06.2016 13:25 33,0 C 24,4 C 29,3 C 37,6 C 37,6 C 4,6 C 45 % 57 % 100 % 1014,2 hPa 0,0 l/m 2,1 km/h (1 Bft) O 90 10 min 19,4 C 37,6 C 0,0 km/h (0 Bft)
24.06.2016 13:30 32,9 C 24,4 C 29,5 C 37,5 C 37,5 C 4,6 C 42 % 55 % 100 % 1014,2 hPa 0,0 l/m 3,4 km/h (1 Bft) O 90 5 min 18,3 C 37,5 C 3,7 km/h (1 Bft)
24.06.2016 13:35 32,8 C 24,5 C 29,4 C 37,0 C 37,0 C 4,2 C 42 % 55 % 100 % 1014,2 hPa 0,0 l/m 4,5 km/h (1 Bft) N-NO 22 5 min 18,2 C 37,0 C 6,6 km/h (2 Bft)
24.06.2016 13:40 32,7 C 24,5 C 29,5 C 36,7 C 36,7 C 4,0 C 43 % 56 % 100 % 1014,2 hPa 0,0 l/m 4,7 km/h (1 Bft) O-SO 112 5 min 18,5 C 36,7 C 3,7 km/h (1 Bft)
24.06.2016 13:45 32,8 C 24,5 C 29,5 C 36,9 C 36,9 C 4,1 C 44 % 55 % 100 % 1014,4 hPa 0,0 l/m 3,7 km/h (1 Bft) O 90 5 min 18,9 C 36,9 C 3,7 km/h (1 Bft)
24.06.2016 13:50 32,8 C 24,5 C 29,8 C 37,1 C 37,1 C 4,3 C 43 % 56 % 100 % 1014,4 hPa 0,0 l/m 3,2 km/h (1 Bft) O-SO 112 5 min 18,5 C 37,1 C 3,7 km/h (1 Bft)
24.06.2016 13:55 32,9 C 24,5 C 30,0 C 37,1 C 37,1 C 4,2 C 44 % 56 % 100 % 1014,4 hPa 0,0 l/m 3,7 km/h (1 Bft) O-NO 67 5 min 19,0 C 37,1 C 4,2 km/h (1 Bft)
24.06.2016 14:00 32,9 C 24,5 C 30,3 C 37,1 C 37,1 C 4,2 C 42 % 55 % 100 % 1014,4 hPa 0,0 l/m 3,7 km/h (1 Bft) O-NO 67 5 min 18,3 C 37,1 C 3,7 km/h (1 Bft)
24.06.2016 14:05 33,0 C 24,6 C 30,4 C 37,3 C 37,3 C 4,3 C 43 % 54 % 100 % 1013,9 hPa 0,0 l/m 3,2 km/h (1 Bft) O-NO 67 5 min 18,7 C 37,3 C 1,8 km/h (1 Bft)
24.06.2016 14:15 33,2 C 24,6 C 30,3 C 37,8 C 37,8 C 4,6 C 43 % 55 % 100 % 1013,9 hPa 0,0 l/m 3,2 km/h (1 Bft) O-NO 67 10 min 18,9 C 37,8 C 6,1 km/h (2 Bft)
24.06.2016 14:20 33,2 C 24,5 C 30,1 C 37,9 C 37,9 C 4,7 C 40 % 53 % 100 % 1013,9 hPa 0,0 l/m 2,7 km/h (1 Bft) O-NO 67 5 min 17,7 C 37,9 C 4,0 km/h (1 Bft)
24.06.2016 14:25 33,2 C 24,5 C 30,0 C 37,8 C 37,8 C 4,6 C 41 % 54 % 100 % 1013,8 hPa 0,0 l/m 3,9 km/h (1 Bft) N-NW 337 5 min 18,1 C 37,8 C 10,1 km/h (2 Bft)
24.06.2016 14:30 33,0 C 24,6 C 30,2 C 37,2 C 37,2 C 4,2 C 41 % 54 % 100 % 1013,8 hPa 0,0 l/m 4,8 km/h (1 Bft) O 90 5 min 18,0 C 37,2 C 2,9 km/h (1 Bft)
24.06.2016 14:35 33,1 C 24,6 C 30,4 C 37,4 C 37,4 C 4,3 C 41 % 53 % 100 % 1013,8 hPa 0,0 l/m 4,2 km/h (1 Bft) O-NO 67 5 min 18,0 C 37,4 C 10,1 km/h (2 Bft)
24.06.2016 14:40 33,3 C 24,6 C 30,4 C 37,6 C 37,6 C 4,3 C 42 % 53 % 100 % 1013,8 hPa 0,0 l/m 3,2 km/h (1 Bft) O-NO 67 5 min 18,6 C 37,6 C 3,2 km/h (1 Bft)
24.06.2016 14:45 33,2 C 24,6 C 30,4 C 37,7 C 37,7 C 4,5 C 41 % 54 % 100 % 1013,6 hPa 0,0 l/m 3,7 km/h (1 Bft) NO 45 5 min 18,1 C 37,7 C 6,4 km/h (2 Bft)
24.06.2016 14:50 33,3 C 24,6 C 30,3 C 37,6 C 37,6 C 4,3 C 41 % 53 % 100 % 1013,6 hPa 0,0 l/m 3,9 km/h (1 Bft) O 90 5 min 18,2 C 37,6 C 1,6 km/h (1 Bft)
24.06.2016 14:55 33,3 C 24,7 C 30,3 C 37,8 C 37,8 C 4,5 C 39 % 52 % 100 % 1013,6 hPa 0,0 l/m 3,5 km/h (1 Bft) O-NO 67 5 min 17,4 C 37,8 C 3,7 km/h (1 Bft)
24.06.2016 15:00 33,4 C 24,7 C 30,4 C 38,0 C 38,0 C 4,6 C 40 % 51 % 100 % 1013,6 hPa 0,0 l/m 2,4 km/h (1 Bft) O-NO 67 5 min 17,9 C 38,0 C 2,7 km/h (1 Bft)
24.06.2016 15:05 33,5 C 24,7 C 30,4 C 38,2 C 38,2 C 4,7 C 42 % 53 % 100 % 1013,1 hPa 0,0 l/m 3,1 km/h (1 Bft) O-NO 67 5 min 18,8 C 38,2 C 6,1 km/h (2 Bft)
24.06.2016 15:15 33,2 C 24,7 C 30,5 C 37,6 C 37,6 C 4,4 C 39 % 52 % 100 % 1013,1 hPa 0,0 l/m 4,7 km/h (1 Bft) O-NO 67 10 min 17,3 C 37,6 C 6,1 km/h (2 Bft)
24.06.2016 15:20 33,2 C 24,8 C 30,4 C 37,3 C 37,3 C 4,1 C 38 % 51 % 100 % 1013,1 hPa 0,0 l/m 4,7 km/h (1 Bft) NO 45 5 min 16,9 C 37,3 C 3,4 km/h (1 Bft)
24.06.2016 15:25 33,3 C 24,8 C 30,4 C 37,3 C 37,3 C 4,0 C 39 % 50 % 100 % 1013,2 hPa 0,0 l/m 4,5 km/h (1 Bft) SW 225 5 min 17,4 C 37,3 C 1,8 km/h (1 Bft)
24.06.2016 15:30 33,3 C 24,8 C 30,7 C 37,8 C 37,8 C 4,5 C 39 % 51 % 100 % 1013,2 hPa 0,0 l/m 3,2 km/h (1 Bft) O-NO 67 5 min 17,4 C 37,8 C 3,7 km/h (1 Bft)
24.06.2016 15:35 33,5 C 24,8 C 30,5 C 38,1 C 38,1 C 4,6 C 39 % 51 % 100 % 1013,2 hPa 0,0 l/m 2,4 km/h (1 Bft) O-NO 67 5 min 17,6 C 38,1 C 6,1 km/h (2 Bft)
24.06.2016 15:52 33,4 C 24,8 C 30,7 C 38,1 C 38,1 C 4,7 C 38 % 50 % 100 % 1013,1 hPa 0,0 l/m 3,5 km/h (1 Bft) N 0 17 min 17,1 C 38,1 C 1,9 km/h (1 Bft)
24.06.2016 15:55 33,4 C 24,8 C 30,9 C 38,3 C 38,3 C 4,9 C 38 % 50 % 100 % 1013,1 hPa 0,0 l/m 3,4 km/h (1 Bft) O-NO 67 3 min 17,1 C 38,3 C 5,3 km/h (1 Bft)
24.06.2016 16:05 33,5 C 25,0 C 31,6 C 38,1 C 38,1 C 4,6 C 43 % 50 % 100 % 1012,6 hPa 0,0 l/m 4,2 km/h (1 Bft) O-SO 112 10 min 19,2 C 38,1 C 3,2 km/h (1 Bft)
24.06.2016 16:10 33,2 C 25,0 C 32,0 C 37,9 C 37,9 C 4,7 C 45 % 53 % 100 % 1012,6 hPa 0,0 l/m 3,7 km/h (1 Bft) O-NO 67 5 min 19,6 C 37,9 C 6,3 km/h (2 Bft)
24.06.2016 16:20 33,0 C 25,0 C 32,2 C 37,4 C 37,4 C 4,4 C 48 % 55 % 100 % 1012,6 hPa 0,0 l/m 4,8 km/h (1 Bft) NO 45 10 min 20,5 C 37,4 C 3,2 km/h (1 Bft)
24.06.2016 16:25 33,1 C 25,0 C 33,1 C 37,4 C 37,4 C 4,3 C 48 % 54 % 100 % 1012,2 hPa 0,0 l/m 4,5 km/h (1 Bft) O 90 5 min 20,6 C 37,4 C 5,3 km/h (1 Bft)
24.06.2016 16:30 33,0 C 25,1 C 33,7 C 37,6 C 37,6 C 4,6 C 41 % 49 % 100 % 1012,2 hPa 0,0 l/m 3,7 km/h (1 Bft) O-SO 112 5 min 18,0 C 37,6 C 3,7 km/h (1 Bft)
24.06.2016 16:35 33,0 C 25,1 C 33,7 C 37,7 C 37,7 C 4,7 C 44 % 49 % 100 % 1012,2 hPa 0,0 l/m 4,0 km/h (1 Bft) O-NO 67 5 min 19,1 C 37,7 C 4,7 km/h (1 Bft)
24.06.2016 16:40 32,9 C 25,1 C 33,7 C 37,5 C 37,5 C 4,6 C 47 % 49 % 100 % 1012,2 hPa 0,0 l/m 4,3 km/h (1 Bft) O-NO 67 5 min 20,1 C 37,5 C 2,4 km/h (1 Bft)
24.06.2016 16:45 32,8 C 25,1 C 33,7 C 37,5 C 37,5 C 4,7 C 48 % 49 % 100 % 1012,1 hPa 0,0 l/m 4,3 km/h (1 Bft) O-SO 112 5 min 20,3 C 37,5 C 5,1 km/h (1 Bft)
24.06.2016 16:50 32,7 C 25,1 C 34,0 C 37,3 C 37,3 C 4,6 C 47 % 50 % 100 % 1012,1 hPa 0,0 l/m 4,0 km/h (1 Bft) NO 45 5 min 19,9 C 37,3 C 2,7 km/h (1 Bft)
24.06.2016 16:55 32,7 C 25,1 C 33,9 C 37,4 C 37,4 C 4,7 C 47 % 50 % 100 % 1012,1 hPa 0,0 l/m 4,5 km/h (1 Bft) NO 45 5 min 19,9 C 37,4 C 7,7 km/h (2 Bft)
24.06.2016 17:00 32,7 C 25,1 C 33,2 C 36,9 C 36,9 C 4,2 C 49 % 51 % 100 % 1012,1 hPa 0,0 l/m 5,0 km/h (1 Bft) O-NO 67 5 min 20,6 C 36,9 C 5,6 km/h (1 Bft)
24.06.2016 17:05 32,5 C 25,1 C 33,3 C 36,8 C 36,8 C 4,3 C 49 % 52 % 100 % 1011,9 hPa 0,0 l/m 5,3 km/h (1 Bft) O-NO 67 5 min 20,4 C 36,8 C 4,8 km/h (1 Bft)
24.06.2016 17:15 32,5 C 25,2 C 33,8 C 36,5 C 36,5 C 4,0 C 51 % 51 % 100 % 1011,9 hPa 0,0 l/m 5,0 km/h (1 Bft) O-SO 112 10 min 21,0 C 36,5 C 4,0 km/h (1 Bft)
24.06.2016 17:20 32,3 C 25,2 C 33,9 C 36,5 C 36,5 C 4,2 C 49 % 48 % 100 % 1011,9 hPa 0,0 l/m 4,3 km/h (1 Bft) O-NO 67 5 min 20,2 C 36,5 C 3,4 km/h (1 Bft)
24.06.2016 17:25 32,2 C 25,2 C 33,9 C 36,6 C 36,6 C 4,4 C 50 % 49 % 100 % 1011,8 hPa 0,0 l/m 4,0 km/h (1 Bft) O-NO 67 5 min 20,4 C 36,6 C 4,7 km/h (1 Bft)
24.06.2016 17:30 32,2 C 25,2 C 33,9 C 36,7 C 36,7 C 4,5 C 50 % 50 % 100 % 1011,8 hPa 0,0 l/m 3,9 km/h (1 Bft) O-NO 67 5 min 20,4 C 36,7 C 5,0 km/h (1 Bft)
24.06.2016 17:35 32,2 C 25,2 C 33,9 C 36,6 C 36,6 C 4,4 C 50 % 50 % 100 % 1011,8 hPa 0,0 l/m 4,5 km/h (1 Bft) O-NO 67 5 min 20,4 C 36,6 C 9,5 km/h (2 Bft)
24.06.2016 17:40 32,3 C 25,2 C 32,7 C 36,3 C 36,3 C 4,0 C 50 % 51 % 100 % 1011,8 hPa 0,0 l/m 4,8 km/h (1 Bft) O-NO 67 5 min 20,5 C 36,3 C 4,8 km/h (1 Bft)
24.06.2016 17:45 32,2 C 25,2 C 32,3 C 36,3 C 36,3 C 4,1 C 51 % 53 % 100 % 1012,2 hPa 0,0 l/m 4,8 km/h (1 Bft) O-NO 67 5 min 20,7 C 36,3 C 3,7 km/h (1 Bft)
24.06.2016 17:50 32,0 C 25,2 C 31,9 C 36,3 C 36,3 C 4,3 C 50 % 54 % 100 % 1012,2 hPa 0,0 l/m 4,2 km/h (1 Bft) O-NO 67 5 min 20,2 C 36,3 C 6,8 km/h (2 Bft)
24.06.2016 17:55 32,1 C 25,3 C 31,9 C 36,2 C 36,2 C 4,1 C 52 % 54 % 100 % 1012,2 hPa 0,0 l/m 4,3 km/h (1 Bft) O-SO 112 5 min 21,0 C 36,2 C 6,4 km/h (2 Bft)
24.06.2016 18:00 32,0 C 25,3 C 31,4 C 35,9 C 35,9 C 3,9 C 51 % 55 % 100 % 1012,2 hPa 0,0 l/m 4,7 km/h (1 Bft) O-SO 112 5 min 20,6 C 35,9 C 6,0 km/h (2 Bft)
24.06.2016 18:05 32,0 C 25,3 C 31,2 C 35,9 C 35,9 C 3,9 C 51 % 56 % 100 % 1012,0 hPa 0,0 l/m 4,5 km/h (1 Bft) O-NO 67 5 min 20,6 C 35,9 C 3,7 km/h (1 Bft)
24.06.2016 18:15 31,9 C 25,3 C 31,1 C 35,9 C 35,9 C 4,0 C 52 % 56 % 100 % 1012,0 hPa 0,0 l/m 4,7 km/h (1 Bft) O-SO 112 10 min 20,8 C 35,9 C 5,1 km/h (1 Bft)
24.06.2016 18:20 31,9 C 25,3 C 30,9 C 36,0 C 36,0 C 4,1 C 53 % 56 % 100 % 1012,0 hPa 0,0 l/m 3,7 km/h (1 Bft) W-NW 292 5 min 21,1 C 36,0 C 4,0 km/h (1 Bft)
24.06.2016 18:30 31,9 C 25,3 C 30,7 C 35,6 C 35,6 C 3,7 C 51 % 56 % 97 % 1011,6 hPa 0,0 l/m 5,3 km/h (1 Bft) O-SO 112 10 min 20,5 C 35,6 C 6,3 km/h (2 Bft)
24.06.2016 18:35 31,7 C 25,3 C 30,7 C 35,5 C 35,5 C 3,8 C 50 % 56 % 100 % 1011,6 hPa 0,0 l/m 5,5 km/h (1 Bft) O-NO 67 5 min 20,0 C 35,5 C 6,9 km/h (2 Bft)
24.06.2016 18:49 31,7 C 25,4 C 30,4 C 35,1 C 35,1 C 3,4 C 51 % 56 % 89 % 1011,7 hPa 0,0 l/m 4,8 km/h (1 Bft) N 0 14 min 20,3 C 35,1 C 4,3 km/h (1 Bft)
24.06.2016 19:00 31,5 C 25,4 C 30,4 C 34,9 C 34,9 C 3,4 C 50 % 56 % 89 % 1011,7 hPa 0,0 l/m 4,7 km/h (1 Bft) O-NO 67 11 min 19,8 C 34,9 C 5,1 km/h (1 Bft)
24.06.2016 19:05 31,4 C 25,4 C 30,2 C 34,8 C 34,8 C 3,4 C 51 % 56 % 89 % 1011,9 hPa 0,0 l/m 4,5 km/h (1 Bft) O 90 5 min 20,0 C 34,8 C 4,3 km/h (1 Bft)
24.06.2016 19:15 31,3 C 25,4 C 30,1 C 34,8 C 34,8 C 3,5 C 52 % 57 % 92 % 1011,9 hPa 0,0 l/m 3,7 km/h (1 Bft) O-SO 112 10 min 20,2 C 34,8 C 3,2 km/h (1 Bft)
24.06.2016 19:20 31,3 C 25,5 C 30,1 C 34,6 C 34,6 C 3,3 C 52 % 57 % 87 % 1011,9 hPa 0,0 l/m 4,3 km/h (1 Bft) SO 135 5 min 20,2 C 34,6 C 4,8 km/h (1 Bft)
24.06.2016 19:25 31,1 C 25,5 C 29,9 C 34,3 C 34,3 C 3,2 C 52 % 58 % 84 % 1011,8 hPa 0,0 l/m 4,8 km/h (1 Bft) O-NO 67 5 min 20,1 C 34,3 C 5,8 km/h (2 Bft)
24.06.2016 19:30 31,1 C 25,5 C 29,9 C 34,0 C 34,0 C 2,9 C 52 % 58 % 76 % 1011,8 hPa 0,0 l/m 4,8 km/h (1 Bft) O 90 5 min 20,1 C 34,0 C 4,5 km/h (1 Bft)
24.06.2016 19:35 30,9 C 25,5 C 29,7 C 33,9 C 33,9 C 3,0 C 52 % 57 % 79 % 1011,8 hPa 0,0 l/m 4,5 km/h (1 Bft) O-NO 67 5 min 19,9 C 33,9 C 4,2 km/h (1 Bft)
24.06.2016 19:40 30,8 C 25,5 C 29,6 C 33,7 C 33,7 C 2,9 C 53 % 58 % 76 % 1011,8 hPa 0,0 l/m 3,5 km/h (1 Bft) O-NO 67 5 min 20,1 C 33,7 C 3,2 km/h (1 Bft)
24.06.2016 19:45 30,6 C 25,5 C 29,5 C 33,7 C 33,7 C 3,1 C 53 % 59 % 82 % 1012,0 hPa 0,0 l/m 3,4 km/h (1 Bft) O-SO 112 5 min 19,9 C 33,7 C 3,2 km/h (1 Bft)
24.06.2016 19:50 30,5 C 25,5 C 29,3 C 33,6 C 33,6 C 3,1 C 54 % 59 % 82 % 1012,0 hPa 0,0 l/m 3,2 km/h (1 Bft) O-SO 112 5 min 20,1 C 33,6 C 3,1 km/h (1 Bft)
24.06.2016 19:55 30,4 C 25,5 C 29,3 C 33,3 C 33,3 C 2,9 C 54 % 60 % 76 % 1012,0 hPa 0,0 l/m 3,2 km/h (1 Bft) O-NO 67 5 min 20,0 C 33,3 C 4,0 km/h (1 Bft)
24.06.2016 20:00 30,3 C 25,5 C 29,1 C 33,1 C 33,1 C 2,8 C 55 % 61 % 74 % 1012,0 hPa 0,0 l/m 3,4 km/h (1 Bft) O-NO 67 5 min 20,2 C 33,1 C 4,3 km/h (1 Bft)
24.06.2016 20:05 30,0 C 25,5 C 28,9 C 32,6 C 32,6 C 2,6 C 56 % 62 % 68 % 1011,8 hPa 0,0 l/m 3,4 km/h (1 Bft) O-NO 67 5 min 20,2 C 32,6 C 3,4 km/h (1 Bft)
24.06.2016 20:15 29,7 C 25,5 C 28,3 C 30,5 C 30,5 C 0,8 C 57 % 64 % 21 % 1011,8 hPa 0,0 l/m 2,6 km/h (1 Bft) O-NO 67 0 min 20,2 C 30,5 C 3,7 km/h (1 Bft)
24.06.2016 20:20 29,5 C 25,5 C 27,9 C 29,6 C 29,6 C 0,1 C 58 % 65 % 3 % 1011,8 hPa 0,0 l/m 4,0 km/h (1 Bft) NO 45 0 min 20,3 C 29,6 C 6,9 km/h (2 Bft)
24.06.2016 20:25 29,3 C 25,5 C 27,8 C 29,3 C 29,2 C 0,0 C 58 % 65 % 0 % 1011,8 hPa 0,0 l/m 5,1 km/h (1 Bft) O-NO 67 0 min 20,2 C 29,2 C 5,3 km/h (1 Bft)
24.06.2016 20:30 29,1 C 25,5 C 27,6 C 29,0 C 28,7 C 0,0 C 58 % 65 % 0 % 1011,8 hPa 0,0 l/m 5,3 km/h (1 Bft) O 90 0 min 20,0 C 28,7 C 5,1 km/h (1 Bft)
24.06.2016 20:35 28,8 C 25,5 C 27,4 C 28,7 C 28,4 C 0,0 C 58 % 65 % 0 % 1011,8 hPa 0,0 l/m 4,3 km/h (1 Bft) O-NO 67 0 min 19,7 C 28,4 C 4,3 km/h (1 Bft)
24.06.2016 20:40 28,6 C 25,5 C 27,2 C 28,4 C 27,9 C 0,0 C 59 % 66 % 0 % 1011,8 hPa 0,0 l/m 3,4 km/h (1 Bft) O-NO 67 0 min 19,8 C 27,9 C 3,9 km/h (1 Bft)
24.06.2016 20:45 28,4 C 25,5 C 26,8 C 28,2 C 27,7 C 0,0 C 59 % 67 % 0 % 1011,7 hPa 0,0 l/m 2,9 km/h (1 Bft) NO 45 0 min 19,6 C 27,7 C 2,9 km/h (1 Bft)
24.06.2016 20:50 28,1 C 25,5 C 26,6 C 27,8 C 27,3 C 0,0 C 60 % 67 % 0 % 1011,7 hPa 0,0 l/m 3,1 km/h (1 Bft) O-NO 67 0 min 19,6 C 27,3 C 3,9 km/h (1 Bft)
24.06.2016 20:55 27,9 C 25,6 C 26,4 C 27,6 C 27,1 C 0,0 C 60 % 67 % 0 % 1011,7 hPa 0,0 l/m 3,2 km/h (1 Bft) NO 45 0 min 19,4 C 27,1 C 3,4 km/h (1 Bft)
24.06.2016 21:00 27,7 C 25,6 C 26,1 C 27,4 C 26,8 C 0,0 C 60 % 68 % 0 % 1011,7 hPa 0,0 l/m 3,1 km/h (1 Bft) O-NO 67 0 min 19,2 C 26,8 C 2,3 km/h (1 Bft)
24.06.2016 21:05 27,5 C 25,6 C 25,9 C 27,2 C 26,6 C 0,0 C 60 % 68 % 0 % 1011,6 hPa 0,0 l/m 2,7 km/h (1 Bft) O-SO 112 0 min 19,0 C 26,6 C 3,2 km/h (1 Bft)
24.06.2016 21:10 27,2 C 25,6 C 25,6 C 26,9 C 26,2 C 0,0 C 61 % 69 % 0 % 1011,6 hPa 0,0 l/m 1,8 km/h (1 Bft) NO 45 0 min 19,0 C 26,2 C 0,0 km/h (0 Bft)
24.06.2016 21:15 27,1 C 25,6 C 25,5 C 26,7 C 25,9 C 0,0 C 62 % 69 % 0 % 1011,6 hPa 0,0 l/m 1,1 km/h (1 Bft) N-NO 22 0 min 19,2 C 25,9 C 0,0 km/h (0 Bft)
24.06.2016 21:20 26,7 C 25,6 C 25,3 C 26,2 C 25,2 C 0,0 C 62 % 70 % 0 % 1011,6 hPa 0,0 l/m 0,0 km/h (0 Bft) NW 315 0 min 18,8 C 25,2 C 0,0 km/h (0 Bft)
24.06.2016 21:25 26,5 C 25,6 C 25,2 C 26,0 C 24,9 C 0,0 C 63 % 70 % 0 % 1012,2 hPa 0,0 l/m 0,0 km/h (0 Bft) NW 315 0 min 18,9 C 24,9 C 0,0 km/h (0 Bft)
24.06.2016 21:30 26,1 C 25,6 C 24,9 C 25,5 C 24,4 C 0,0 C 65 % 71 % 0 % 1012,2 hPa 0,0 l/m 0,0 km/h (0 Bft) NO 45 0 min 19,0 C 24,4 C 0,0 km/h (0 Bft)
24.06.2016 21:35 26,0 C 25,6 C 24,6 C 25,4 C 24,2 C 0,0 C 65 % 72 % 0 % 1012,2 hPa 0,0 l/m 0,0 km/h (0 Bft) N-NO 22 0 min 18,9 C 24,2 C 0,0 km/h (0 Bft)
24.06.2016 21:38 25,6 C 25,6 C 24,3 C 25,1 C 24,0 C 0,0 C 66 % 73 % 0 % 1012,2 hPa 0,0 l/m 0,3 km/h (0 Bft) O-NO 67 0 min 18,8 C 24,0 C 1,9 km/h (1 Bft)
24.06.2016 21:43 25,4 C 25,6 C 24,1 C 24,9 C 23,8 C 0,0 C 67 % 74 % 0 % 1012,4 hPa 0,0 l/m 0,5 km/h (0 Bft) O-NO 67 0 min 18,8 C 23,8 C 0,0 km/h (0 Bft)
24.06.2016 21:48 24,8 C 25,6 C 23,8 C 24,4 C 23,6 C 0,0 C 69 % 75 % 0 % 1012,4 hPa 0,0 l/m 0,8 km/h (0 Bft) O-NO 67 0 min 18,7 C 23,6 C 1,8 km/h (1 Bft)
24.06.2016 21:53 24,6 C 25,7 C 23,7 C 24,2 C 23,3 C 0,0 C 69 % 76 % 0 % 1012,4 hPa 0,0 l/m 0,5 km/h (0 Bft) O-NO 67 0 min 18,5 C 23,3 C 0,0 km/h (0 Bft)
24.06.2016 21:58 24,3 C 25,7 C 23,3 C 23,8 C 22,8 C 0,0 C 70 % 76 % 0 % 1012,4 hPa 0,0 l/m 0,0 km/h (0 Bft) O-NO 67 0 min 18,5 C 22,8 C 0,0 km/h (0 Bft)
24.06.2016 22:03 24,1 C 25,7 C 23,2 C 23,6 C 22,6 C 0,0 C 70 % 77 % 0 % 1011,8 hPa 0,0 l/m 0,0 km/h (0 Bft) O-NO 67 0 min 18,3 C 22,6 C 0,0 km/h (0 Bft)
24.06.2016 22:08 23,9 C 25,7 C 23,1 C 23,3 C 22,1 C 0,0 C 72 % 78 % 0 % 1011,8 hPa 0,0 l/m 0,0 km/h (0 Bft) O-NO 67 0 min 18,5 C 22,1 C 0,0 km/h (0 Bft)
24.06.2016 22:13 23,9 C 25,7 C 23,0 C 23,2 C 21,9 C 0,0 C 73 % 79 % 0 % 1011,8 hPa 0,0 l/m 0,0 km/h (0 Bft) O-NO 67 0 min 18,8 C 21,9 C 0,0 km/h (0 Bft)
24.06.2016 22:18 23,7 C 25,7 C 22,9 C 23,0 C 21,7 C 0,0 C 75 % 80 % 0 % 1011,8 hPa 0,0 l/m 0,0 km/h (0 Bft) W 270 0 min 19,0 C 21,7 C 0,0 km/h (0 Bft)
24.06.2016 22:23 23,4 C 25,7 C 22,9 C 22,8 C 21,7 C 0,0 C 75 % 80 % 0 % 1012,4 hPa 0,0 l/m 0,0 km/h (0 Bft) SW 225 0 min 18,7 C 21,7 C 0,0 km/h (0 Bft)
24.06.2016 22:28 23,2 C 25,7 C 22,8 C 22,6 C 21,5 C 0,0 C 75 % 80 % 0 % 1012,4 hPa 0,0 l/m 0,0 km/h (0 Bft) O-NO 67 0 min 18,5 C 21,5 C 0,0 km/h (0 Bft)
24.06.2016 22:33 23,0 C 25,7 C 22,7 C 22,5 C 21,5 C 0,0 C 76 % 80 % 0 % 1012,4 hPa 0,0 l/m 0,3 km/h (0 Bft) O-NO 67 0 min 18,5 C 21,5 C 0,0 km/h (0 Bft)
24.06.2016 22:38 22,6 C 25,7 C 22,4 C 22,3 C 21,7 C 0,0 C 77 % 81 % 0 % 1012,4 hPa 0,0 l/m 1,3 km/h (1 Bft) O-NO 67 0 min 18,4 C 21,7 C 3,1 km/h (1 Bft)
24.06.2016 22:43 22,5 C 25,7 C 22,1 C 22,2 C 21,7 C 0,0 C 77 % 81 % 0 % 1012,1 hPa 0,0 l/m 2,3 km/h (1 Bft) O-NO 67 0 min 18,3 C 21,7 C 3,4 km/h (1 Bft)
24.06.2016 22:52 22,6 C 25,7 C 22,1 C 22,3 C 21,8 C 0,0 C 76 % 81 % 0 % 1012,1 hPa 0,0 l/m 2,1 km/h (1 Bft) O-NO 67 0 min 18,1 C 21,8 C 0,0 km/h (0 Bft)
24.06.2016 23:00 22,3 C 25,7 C 21,9 C 21,9 C 21,2 C 0,0 C 76 % 81 % 0 % 1012,1 hPa 0,0 l/m 0,0 km/h (0 Bft) NO 45 0 min 17,9 C 21,2 C 0,0 km/h (0 Bft)
24.06.2016 23:05 22,2 C 25,7 C 21,7 C 21,8 C 21,1 C 0,0 C 77 % 81 % 0 % 1011,9 hPa 0,0 l/m 0,0 km/h (0 Bft) O-NO 67 0 min 18,0 C 21,1 C 0,0 km/h (0 Bft)
24.06.2016 23:14 22,0 C 25,7 C 21,5 C 21,6 C 20,7 C 0,0 C 77 % 82 % 0 % 1011,9 hPa 0,0 l/m 0,0 km/h (0 Bft) W 270 0 min 17,8 C 20,7 C 0,0 km/h (0 Bft)
24.06.2016 23:15 21,9 C 25,7 C 21,5 C 21,5 C 20,6 C 0,0 C 77 % 82 % 0 % 1011,9 hPa 0,0 l/m 0,0 km/h (0 Bft) W 270 0 min 17,7 C 20,6 C 0,0 km/h (0 Bft)
24.06.2016 23:16 21,9 C 25,7 C 21,5 C 21,5 C 20,6 C 0,0 C 77 % 82 % 0 % 1011,9 hPa 0,0 l/m 0,0 km/h (0 Bft) W 270 0 min 17,7 C 20,6 C 0,0 km/h (0 Bft)
24.06.2016 23:17 21,9 C 25,7 C 21,5 C 21,5 C 20,6 C 0,0 C 77 % 82 % 0 % 1011,9 hPa 0,0 l/m 0,0 km/h (0 Bft) W 270 0 min 17,7 C 20,6 C 0,0 km/h (0 Bft)
24.06.2016 23:18 21,9 C 25,7 C 21,5 C 21,5 C 20,6 C 0,0 C 77 % 82 % 0 % 1011,9 hPa 0,0 l/m 0,0 km/h (0 Bft) W 270 0 min 17,7 C 20,6 C 0,0 km/h (0 Bft)
24.06.2016 23:21 21,7 C 25,8 C 21,3 C 21,3 C 20,4 C 0,0 C 78 % 82 % 0 % 1011,9 hPa 0,0 l/m 0,0 km/h (0 Bft) W 270 0 min 17,7 C 20,4 C 0,0 km/h (0 Bft)
24.06.2016 23:30 21,2 C 25,8 C 21,3 C 20,8 C 20,0 C 0,0 C 78 % 83 % 0 % 1011,8 hPa 0,0 l/m 0,0 km/h (0 Bft) W 270 0 min 17,2 C 20,0 C 0,0 km/h (0 Bft)
24.06.2016 23:35 21,0 C 25,8 C 21,2 C 20,7 C 20,0 C 0,0 C 78 % 83 % 0 % 1011,8 hPa 0,0 l/m 0,0 km/h (0 Bft) W 270 0 min 17,0 C 20,0 C 0,0 km/h (0 Bft)
24.06.2016 23:40 20,9 C 25,8 C 21,2 C 20,5 C 19,8 C 0,0 C 78 % 83 % 0 % 1011,8 hPa 0,0 l/m 0,0 km/h (0 Bft) W 270 0 min 16,9 C 19,8 C 0,0 km/h (0 Bft)
24.06.2016 23:45 20,8 C 25,8 C 21,1 C 20,4 C 19,7 C 0,0 C 79 % 84 % 0 % 1011,8 hPa 0,0 l/m 0,0 km/h (0 Bft) W 270 0 min 17,0 C 19,7 C 0,0 km/h (0 Bft)
24.06.2016 23:55 20,4 C 25,8 C 20,8 C 20,1 C 19,5 C 0,0 C 79 % 84 % 0 % 1011,8 hPa 0,0 l/m 0,0 km/h (0 Bft) N-NW 337 0 min 16,6 C 19,5 C 0,0 km/h (0 Bft)
_ Min-Zeit 05:40 08:50 05:40 05:40 05:40 00:00 15:20 17:20 00:00 18:30 - 00:00 - - - 05:40 05:40 00:00
Minimum _ 14,5 C 23,9 C 16,0 C 14,7 C 14,7 C 0,0 C 38 % 48 % 0 % 1011,6 hPa - 0,0 km/h (0 Bft) - - - 12,5 C 14,7 C 0,0 km/h (0 Bft)
_ Max-Zeit 15:05 23:21 16:50 10:30 10:30 08:15 07:16 05:10 07:12 06:05 00:00 18:35 - - 15:52 09:05 10:30 14:25
Maximum _ 33,5 C 25,8 C 34,0 C 39,5 C 39,5 C 13,4 C 92 % 90 % 100 % 1016,2 hPa 0,0 l/m 5,5 km/h
O-NO (1 Bft)
- - 17 min 21,2 C 39,5 C 10,1 km/h
N-NW (2 Bft)
Durchschnitt _ 25,2 C 24,9 C 24,2 C 28,7 C 28,6 C 3,6 C 66 % 73 % 55 % 1014,1 hPa #0,0 l/m 1,6 km/h (1 Bft) O-NO - #13:09 h 17,6 C 28,6 C 1,9 km/h (1 Bft)
2016 www.wetterstation-wechselburg.de